Weather History for Franklin, NC

Change the Weather History Date:

Tuesday, January 31, 2012

  Actual Average (KTOC) Record (KTOC)
Temperature  
Mean Temperature 40 °F -  
Max Temperature 60 °F 55 °F 63 °F (2014)
Min Temperature 21 °F 32 °F 21 °F (2014)
Degree Days  
Heating Degree Days 24    
Moisture  
Dew Point 22 °F    
Average Humidity 61    
Maximum Humidity 93    
Minimum Humidity 16    
Precipitation  
Precipitation 0.00 in - - ()
Sea Level Pressure  
Sea Level Pressure 30.35 in    
Wind  
Wind Speed 0 mph (ESE)    
Max Wind Speed 7 mph    
Max Gust Speed -    
Visibility 10 miles    
Events      
Averages and records for this station are not official NWS values.
T = Trace of Precipitation, MM = Missing Value Source: NWS Daily Summary

Daily Weather History Graph

Daily Weather History Graph

Search for Another Location

Airport:

Trip Planner

Search our weather history database for the weather conditions in past years. The results will help you decide how hot, cold, wet, or windy it might be!

Date:

Astronomy

Jan. 31, 2012 Rise Set
Actual Time 7:33 AM EST 6:00 PM EST
Civil Twilight 7:07 AM EST 6:27 PM EST
Nautical Twilight 6:36 AM EST 6:57 PM EST
Astronomical Twilight 6:06 AM EST 7:27 PM EST
Moon 11:51 AM EST (1/31) 1:19 AM EST (1/31)
Length of Visible Light 11h 20m
Length of Day
10h 26m
First Quarter, 55% of the Moon is Illuminated
Jan 31
First Quarter
Feb 7
Full
Feb 14
Last Quarter
Feb 21
New
Feb 29
First Quarter

Hourly Weather History & Observations

Time (EST) Temp. Windchill Dew Point Humidity Pressure Visibility Wind Dir Wind Speed Gust Speed Precip Events Conditions
12:15 AM 26.6 °F - 23.0 °F 86% 30.38 in 10.0 mi Calm Calm - N/A   Clear
12:35 AM 26.6 °F - 23.0 °F 86% 30.38 in 10.0 mi Calm Calm - N/A   Clear
12:55 AM 26.6 °F - 23.0 °F 86% 30.38 in 10.0 mi Calm Calm - N/A   Clear
1:15 AM 24.8 °F - 21.2 °F 86% 30.38 in 10.0 mi Calm Calm - N/A   Clear
1:35 AM 24.8 °F - 21.2 °F 86% 30.38 in 10.0 mi Calm Calm - N/A   Clear
1:55 AM 24.8 °F - 21.2 °F 86% 30.38 in 10.0 mi Calm Calm - N/A   Clear
2:15 AM 24.8 °F - 21.2 °F 86% 30.38 in 10.0 mi Calm Calm - N/A   Scattered Clouds
2:35 AM 23.0 °F - 21.2 °F 93% 30.39 in 10.0 mi Calm Calm - N/A   Scattered Clouds
2:55 AM 23.0 °F - 21.2 °F 93% 30.38 in 10.0 mi Calm Calm - N/A   Scattered Clouds
3:15 AM 23.0 °F - 21.2 °F 93% 30.38 in 10.0 mi Calm Calm - N/A   Clear
3:35 AM 23.0 °F - 21.2 °F 93% 30.39 in 10.0 mi Calm Calm - N/A   Clear
3:55 AM 23.0 °F - 21.2 °F 93% 30.38 in 10.0 mi Calm Calm - N/A   Clear
4:15 AM 23.0 °F - 21.2 °F 93% 30.38 in 10.0 mi Calm Calm - N/A   Clear
4:35 AM 23.0 °F - 21.2 °F 93% 30.38 in 10.0 mi Calm Calm - N/A   Clear
4:55 AM 21.2 °F - 19.4 °F 93% 30.37 in 10.0 mi Calm Calm - N/A   Clear
5:15 AM 21.2 °F - 19.4 °F 93% 30.38 in 10.0 mi Calm Calm - N/A   Clear
5:35 AM 21.2 °F - 19.4 °F 93% 30.38 in 10.0 mi Calm Calm - N/A   Clear
5:55 AM 21.2 °F - 19.4 °F 93% 30.39 in 10.0 mi Calm Calm - N/A   Clear
6:15 AM 23.0 °F - 19.4 °F 86% 30.39 in 10.0 mi Calm Calm - N/A   Clear
6:35 AM 23.0 °F - 19.4 °F 86% 30.39 in 10.0 mi Calm Calm - N/A   Clear
7:15 AM 21.2 °F - 19.4 °F 93% 30.40 in 10.0 mi Calm Calm - N/A   Clear
7:35 AM 21.2 °F - 19.4 °F 93% 30.41 in 10.0 mi Calm Calm - N/A   Clear
7:55 AM 21.2 °F - 19.4 °F 93% 30.42 in 10.0 mi Calm Calm - N/A   Clear
8:15 AM 23.0 °F - 19.4 °F 86% 30.42 in 10.0 mi Calm Calm - N/A   Clear
8:35 AM 24.8 °F - 23.0 °F 93% 30.43 in 10.0 mi Calm Calm - N/A   Clear
8:55 AM 26.6 °F - 24.8 °F 93% 30.43 in 10.0 mi Calm Calm - N/A   Clear
9:15 AM 30.2 °F - 26.6 °F 86% 30.43 in 10.0 mi Calm Calm - N/A   Clear
9:35 AM 32.0 °F - 26.6 °F 80% 30.43 in 10.0 mi Calm Calm - N/A   Clear
9:55 AM 33.8 °F - 26.6 °F 75% 30.42 in 10.0 mi Calm Calm - N/A   Clear
10:15 AM 37.4 °F - 24.8 °F 60% 30.41 in 10.0 mi Calm Calm - N/A   Clear
10:35 AM 39.2 °F - 26.6 °F 61% 30.40 in 10.0 mi Calm Calm - N/A   Clear
10:55 AM 42.8 °F - 28.4 °F 57% 30.40 in 10.0 mi Calm Calm - N/A   Scattered Clouds
11:15 AM 44.6 °F - 28.4 °F 53% 30.40 in 10.0 mi Calm Calm - N/A   Mostly Cloudy
11:35 AM 44.6 °F - 26.6 °F 49% 30.40 in 10.0 mi Calm Calm - N/A   Overcast
11:55 AM 46.4 °F - 26.6 °F 46% 30.39 in 10.0 mi Calm Calm - N/A   Overcast
12:15 PM 48.2 °F - 21.2 °F 34% 30.37 in 10.0 mi Calm Calm - N/A   Overcast
12:35 PM 51.8 °F - 21.2 °F 30% 30.36 in 10.0 mi Calm Calm - N/A   Scattered Clouds
12:55 PM 53.6 °F - 21.2 °F 28% 30.35 in 10.0 mi Calm Calm - N/A   Clear
1:15 PM 55.4 °F - 23.0 °F 29% 30.34 in 10.0 mi ENE 3.5 mph - N/A   Clear
1:35 PM 55.4 °F - 21.2 °F 26% 30.33 in 10.0 mi ENE 4.6 mph - N/A   Clear
1:55 PM 59.0 °F - 19.4 °F 22% 30.30 in 10.0 mi ENE 3.5 mph - N/A   Clear
2:15 PM 59.0 °F - 19.4 °F 22% 30.29 in 10.0 mi ENE 3.5 mph - N/A   Clear
2:35 PM 60.8 °F - 17.6 °F 19% 30.28 in 10.0 mi Calm Calm - N/A   Clear
2:55 PM 60.8 °F - 15.8 °F 17% 30.27 in 10.0 mi NE 3.5 mph - N/A   Clear
3:15 PM 60.8 °F - 17.6 °F 19% 30.27 in 10.0 mi Calm Calm - N/A   Scattered Clouds
3:35 PM 60.8 °F - 15.8 °F 17% 30.26 in 10.0 mi Calm Calm - N/A   Scattered Clouds
3:55 PM 60.8 °F - 21.2 °F 22% 30.26 in 10.0 mi Calm Calm - N/A   Scattered Clouds
4:15 PM 59.0 °F - 30.2 °F 34% 30.26 in 10.0 mi Calm Calm - N/A   Scattered Clouds
4:35 PM 57.2 °F - 30.2 °F 36% 30.26 in 10.0 mi Calm Calm - N/A   Scattered Clouds
4:55 PM 59.0 °F - 23.0 °F 25% 30.26 in 10.0 mi Calm Calm - N/A   Mostly Cloudy
5:15 PM 59.0 °F - 14.0 °F 17% 30.27 in 10.0 mi SSE 5.8 mph - N/A   Mostly Cloudy
5:35 PM 59.0 °F - 12.2 °F 16% 30.27 in 10.0 mi Calm Calm - N/A   Mostly Cloudy
5:55 PM 57.2 °F - 12.2 °F 17% 30.27 in 10.0 mi SSE 4.6 mph - N/A   Mostly Cloudy
6:15 PM 55.4 °F - 12.2 °F 18% 30.27 in 10.0 mi South 4.6 mph - N/A   Scattered Clouds
6:35 PM 55.4 °F - 14.0 °F 20% 30.28 in 10.0 mi SSE 6.9 mph - N/A   Scattered Clouds
7:15 PM 51.8 °F - 19.4 °F 28% 30.29 in 10.0 mi Calm Calm - N/A   Scattered Clouds
7:35 PM 50.0 °F - 23.0 °F 35% 30.29 in 10.0 mi ESE 3.5 mph - N/A   Mostly Cloudy
7:55 PM 46.4 °F 45.2 °F 24.8 °F 43% 30.30 in 10.0 mi East 3.5 mph - N/A   Scattered Clouds
8:15 PM 42.8 °F - 30.2 °F 61% 30.30 in 10.0 mi Calm Calm - N/A   Clear
8:35 PM 42.8 °F - 32.0 °F 66% 30.30 in 10.0 mi Calm Calm - N/A   Scattered Clouds
8:55 PM 42.8 °F - 32.0 °F 66% 30.30 in 10.0 mi Calm Calm - N/A   Mostly Cloudy
9:15 PM 42.8 °F - 32.0 °F 66% 30.29 in 10.0 mi Calm Calm - N/A   Mostly Cloudy
9:35 PM 41.0 °F - 32.0 °F 70% 30.30 in 10.0 mi Calm Calm - N/A   Scattered Clouds
9:55 PM 39.2 °F - 32.0 °F 75% 30.29 in 10.0 mi Calm Calm - N/A   Clear
10:15 PM 37.4 °F - 32.0 °F 81% 30.29 in 10.0 mi Calm Calm - N/A   Clear
10:35 PM 35.6 °F - 30.2 °F 81% 30.29 in 10.0 mi Calm Calm - N/A   Scattered Clouds
10:55 PM 35.6 °F - 30.2 °F 81% 30.29 in 10.0 mi Calm Calm - N/A   Overcast
11:15 PM 35.6 °F - 32.0 °F 87% 30.29 in 10.0 mi Calm Calm - N/A   Overcast
11:35 PM 35.6 °F - 32.0 °F 87% 30.30 in 10.0 mi Calm Calm - N/A   Overcast
11:55 PM 37.4 °F - 32.0 °F 81% 30.30 in 10.0 mi Calm Calm - N/A   Overcast